Location: Rounton
(54.4000°N, 1.3500°W)
Time: 21:37:07
(UTC+01:00)

YAOGAN 20A - Pass Details

Date: 08 July 2022
Orbit: 891 x 1288 km, 63.4° (Epoch: 18 August)

Event Time Altitude Azimuth Distance (km) Brightness Sun altitude
Rises 00:31:38 0° 311° (NW) 3,842 8.9 -12.6°
Reaches altitude 10° 00:34:15 10° 307° (NW) 2,941 8.1 -12.7°
Maximum altitude 00:41:00 51° 234° (SW) 1,438 5.6 -12.8°
Enters shadow 00:46:53 16° 165° (SSE) 2,715 6.6 -12.9°
